Location: Home
(42.5358°N, 72.7383°W)
Time: 19:04:40
(UTC-05:00)

Explorer 7 - Pass Details

Date: 02 December 2021
Orbit: 483 x 674 km, 50.3° (Epoch: 23 January)

Event Time Altitude Azimuth Distance (km) Brightness Sun altitude
Rises 11:36:14 0° 300° (WNW) 2,610 10.0 25.4°
Reaches altitude 10° 11:38:28 10° 301° (WNW) 1,702 9.1 25.4°
Maximum altitude 11:42:18 89° 2° (N) 492 7.0 25.4°
Drops below altitude 10° 11:46:02 10° 122° (ESE) 1,657 9.8 25.4°
Sets 11:48:11 0° 122° (ESE) 2,534 10.6 25.4°
